User: anonymous
Location: Unspecified
(0.0000°N, 0.0000°E)
Time: 05:45:36
(UTC+02:00)
Language:

Resurs 01 Rocket - Orbit

View from above orbital plane
View from above orbital plane
View from above satellite
View from above satellite

Ground track
Ground track

The orbit data is extracted from the following two-line orbital elements,

1 23343U 94074B   14293.48808510  .00000690  00000-0  10744-3 0  1482
2 23343 098.2257 299.6422 0005744 305.8943 174.9334 14.76233494 73583
Epoch (UTC): 20 October 2014 11:42:50
Eccentricity: 0.0005744
inclination: 98.2257°
perigee height: 637 km
apogee height: 645 km
right ascension of ascending node: 299.6422°
argument of perigee: 305.8943°
revolutions per day: 14.76233494
mean anomaly at epoch: 174.9334°
orbit number at epoch: 7358

The dashed part of the orbit path shows where the satellite is in the earth's shadow,  

DLR